Portada
METAR-TAF:

METAR-TAF

Aeroports :

Atlanta, Geòrgia, Estats Units d'Amèrica

latitud: 33-54-43N, longitud: 084-56-26W, altitud: 393 m

Observació

L'informe es va fer fa 15 minuts, a les 15:15 UTC
Vent 5 kt del Nord-Oest
Temperatura 25°C
Humitat 61%
Pressió 1019 hPa
Visibilitat: 16.1 km
Núvols disperses a una alçada de 3000 ft

METAR: KPUJ 301515Z AUTO 32005KT 10SM SCT030 25/17 A3009 RMK AO2

Hora: 11:30 (15:30 UTC)


TAF: manca

Observacions i pronòstics meteorològics de més de 4000 aeroports (METAR i TAF).

Les estacions disponibles són els punts grocs i vermells al mapa.

Posi el ratolí al punt desitjat per veure el nom de l'estació.

Feu clic per veure les observacions i els pronòstics meteorològics.

Per canviar el mapa: feu clic els botons verds amb una creu de color negre per apropar; al botó verd amb un guió per allunyar la imatge; o en les fletxes verdes per a mapes adjacents.


METAR-TAF: